METAR Formatted Surface Weather Observation
Issued by NWS Albuquerque, NM

Home | Current Version | Previous Version | Text Only | Print | Product List | Glossary On
Versions: 1 2 3 4 5 6 7 8 9 10 11 12 13 14 15 16 17 18 19 20 21 22 23 24 25 26 27 28 29 30 31 32 33 34 35 36 37 38 39 40 41 42 43 44 45 46 47 48 49 50
000
SAUS45 KABQ 302352
MTRABQ
METAR KABQ 302352Z 02005KT 10SM FEW004 FEW015 OVC019 02/01 A3008 RMK
AO2 SLP188 MTNS OBSC NE-SE 60000 T00220006 10028 20006 56019



USA.gov is the U.S. government's official web portal to all federal, state and local government web resources and services.